Regional Weather Roundup
Issued by NWS

Home | Current Version | Previous Version | Graphics & Text | Print | Product List | Glossary Off
Versions: 1 2 3 4 5 6 7 8 9 10 11 12 13 14 15 16 17 18 19 20 21 22 23 24 25 26 27 28 29 30 31 32 33 34 35 36 37 38 39 40 41 42 43 44 45 46 47 48 49 50

000
ASUS43 KMKX 042211
RWRWI

WISCONSIN REGIONAL WEATHER ROUNDUP
NATIONAL WEATHER SERVICE MILWAUKEE/SULLIVAN WI
500 PM CDT TUE AUG 04 2015

NOTE: "FAIR" INDICATES FEW OR NO CLOUDS BELOW 12,000 FEET WITH NO
SIGNIFICANT WEATHER AND/OR OBSTRUCTIONS TO VISIBILITY.

WIZ001-002-006>008-014>016-023>028-042300-
NORTHWEST WISCONSIN

CITY           SKY/WX    TMP DP  RH WIND       PRES   REMARKS
SUPERIOR ARPT  SUNNY     70  54  56 E10       29.98R
ASHLAND        MOSUNNY   71  56  58 NE10      29.99R
HAYWARD        MOSUNNY   75  50  41 VRB6      29.97S
SIREN          MOSUNNY   76  51  42 N7        29.98R
CUMBERLAND     PTSUNNY   72  52  49 N7        29.98S
RICE LAKE      PTSUNNY   74  52  47 NW3       29.99S
CHETEK         CLOUDY    74  55  51 CALM      29.97S
LADYSMITH      PTSUNNY   73  53  49 NW6       30.00R
EAU CLAIRE     CLOUDY    78  52  40 NW5       29.97R
MENOMONIE      PTSUNNY   78  46  32 NW10G17   29.97F
NEW RICHMOND   MOSUNNY   75  53  45 NW7       29.98S
OSCEOLA        MOSUNNY   79  51  38 W6        29.99S
$$

WIZ003>005-009-010-017-018-042300-
NORTH CENTRAL WISCONSIN

CITY           SKY/WX    TMP DP  RH WIND       PRES   REMARKS
MANITOWISH WTR MOSUNNY   67  51  57 N9        29.99R
ARBOR VITAE    SUNNY     70  52  52 N12G17    29.99R
WOODRUFF       SUNNY     70  52  52 N12G17    29.99R
RHINELANDER    MOSUNNY   70  49  47 NW10      29.99S
EAGLE RIVER    MOSUNNY   69  47  45 N10G20    29.98R
LAND O LAKES   PTSUNNY   68  47  47 N14       30.00R
PHILLIPS       PTSUNNY   71  53  53 N8        29.98R
TOMAHAWK       CLOUDY    71  52  49 NW6       29.98S
MEDFORD        CLOUDY    70  53  53 NW7       29.99R
MERRILL        NOT AVBL
$$

WIZ029-030-035-036-043>047-042300-
CENTRAL WISCONSIN

CITY           SKY/WX    TMP DP  RH WIND       PRES   REMARKS
WAUSAU         CLOUDY    73  50  44 NW12      29.96S
MOSINEE        CLOUDY    72  52  49 NW8       29.99S
MARSHFIELD     CLOUDY    75  50  41 NW13      29.98S
STEVENS POINT  CLOUDY    72  52  48 NW6       29.98S
WAUPACA        PTSUNNY   78  51  39 W12G17    29.96S
WAUTOMA        MOSUNNY   80  49  33 W10       29.96F
WISC RAPIDS    PTSUNNY   77  49  37 W15       29.98F
CAMP DOUGLAS   SUNNY     78  54  43 NW7       29.96F
$$

WIZ011>013-019>022-031-037>040-048>050-042300-
NORTHEAST WISCONSIN

CITY           SKY/WX    TMP DP  RH WIND       PRES   REMARKS
ANTIGO         CLOUDY    70  50  50 N8        29.98R
SHAWANO        CLOUDY    75  51  42 NW7       29.95R
OCONTO         PTSUNNY   75  49  40 NW6G17    29.92S
STURGEON BAY   PTSUNNY   70  54  56 N7        29.97R
GREEN BAY      PTSUNNY   76  55  48 NW8       29.94S
MANITOWOC      PTSUNNY   77  51  40 MISG      29.94S
APPLETON       PTSUNNY   77  48  36 W14       29.96S
CLINTONVILLE   CLOUDY    75  46  35 NW8       29.95R
OSHKOSH        MOSUNNY   77  53  43 NW13      29.95S
$$

WIZ032>034-041-042-053>061-042300-
SOUTHWEST WISCONSIN

CITY           SKY/WX    TMP DP  RH WIND       PRES   REMARKS
LA CROSSE      MOSUNNY   81  53  37 NW9       29.96F HX  80
SPARTA         MOSUNNY   79  47  31 NW10      29.98S
VIROQUA        MOSUNNY   76  55  46 NW7       30.00S
BOSCOBEL       PTSUNNY   81  52  36 NW6       29.96F HX  80
PRAIRIE DU CHI PTSUNNY   78  48  33 N6        29.97S
PLATTEVILLE    MOSUNNY   76  53  44 N3        29.98S
$$

WIZ056-057-062-063-064-067-068-042300-
SOUTH CENTRAL WISCONSIN

CITY           SKY/WX    TMP DP  RH WIND       PRES   REMARKS
REEDSBURG      MOSUNNY   77  51  40 NW9       29.97S
BARABOO/DELLS  MOSUNNY   79  46  31 NW9       29.97S
LONE ROCK      PTSUNNY   80  51  36 NW8       29.97F HX  80
MINERAL POINT  PTSUNNY   77  48  36 NW3       29.98F
MADISON        PTSUNNY   79  53  40 VRB7      29.97S
MIDDLETON      PTSUNNY   77  50  38 NW6       29.98S
WATERTOWN      MOSUNNY   77  55  45 NW10      29.96F
MONROE         PTSUNNY   75  52  43 NW6       29.98S
JANESVILLE     PTSUNNY   79  52  38 W9        29.97F
$$

WIZ051-052-058>065-066-070>072-042300-
SOUTHEAST WISCONSIN

CITY           SKY/WX    TMP DP  RH WIND       PRES   REMARKS
MILWAUKEE      PTSUNNY   79  51  37 N12G17    29.96S
WAUKESHA       MOSUNNY   75  48  38 W14G21    29.98F
MILWAUKEE/TIMM MOSUNNY   79  46  31 W12G18    29.96F
RACINE         MOSUNNY   77  55  46 NE5       29.97F
BURLINGTON     MOSUNNY   77  47  35 NW9       29.97S
KENOSHA        MOSUNNY   78  53  41 NW9       29.96F
FOND DU LAC    SUNNY     78  53  41 W10       29.96R
SHEBOYGAN      MOSUNNY   78  53  41 NW10      29.95S
WEST BEND      PTSUNNY   77  50  38 NW7       29.96S
JUNEAU         CLOUDY    76  52  43 W7        29.97F
$$

LSZ147-162-042300-
LAKE SUPERIOR

STATION/POSITION TIME  TEMP    WIND        PRES    WAVE
                       AIR SEA DIR/SP/G            HT/PER
                 (UTC) (F)     (DEG/KT/KT) (MB)    (FT/S)
W MID LAKE BUOY  2150   58 58   80/  4/  6 1016.1F   0
DEVILS ISLAND    2200   65      20/  1/  2 1015.9R
PORT WING        2140   70      40/  9/ 10 1015.2F
SAXON HARBOR     2140   67      50/  8/  9 1015.6R
$$

LMZ867-665-643>646-042300-
LAKE MICHIGAN

STATION/POSITION TIME  TEMP    WIND        PRES    WAVE
                       AIR SEA DIR/SP/G            HT/PER
                 (UTC) (F)     (DEG/KT/KT) (MB)    (FT/S)
CHAMBERS ISLAND  2100   66      40/  5/  9 1013.9R
N MID LAKE BUOY  2150   63 70  300/  2/  4 1014.1R   0
NORTHPORT PIER   2100   67      30/  3/  5 1014.2S
SISTER BAY       2118   73      20/  9/ 10   N/A
ALGOMA LAKESHORE 2112          320/  8/ 11   N/A
KEWAUNEE LAKESHO 2100   74     180/ 10/ 11 1013.4S
SHEBOYGAN LAKESH 2200   76     320/ 10/ 12 1014.1S
PORT WASHINGTON  2140   80     280/  8/ 13 1014.6F
ATWATER BUOY     2200   67 55  350/  6/  6 1015.6F
MILWAUKEE LAKESH 2100   76     300/  8/ 12   N/A
KENOSHA   LAKESH 2200   77     320/  9/ 16 1013.9F
$$

TC  - TEMPERATURE IN CELSIUS
VSB - VISIBILITY IN STATUTE MILES
WCI - WIND CHILL INDEX
HX  - HEAT INDEX




USA.gov is the U.S. government's official web portal to all federal, state and local government web resources and services.